DECAYED

STARLINK-1866, 47152 (Decayed)

Orbit data source: Space-Track

STARLINK-1866, 47152 was a payload satellite owned by SpaceX/Seattle (US) in LEO that was launched on Wed, 25 Nov 2020 UTC via an FALCON 9 launch vehicle from the Air Force Eastern Test Range (AFETR). Payload-class satellites include a variety of spacecraft equipped with specific instruments for various scientific and technological missions. These include communications satellites like Starlink; space stations such as the ISS; scientific satellites like the Hubble; Earth observation satellites from companies like Planet Labs, Umbra, and HawkEye 360; GPS; miniature CubeSats for education and research; and military/defense satellites.

Not visible in the next 10 days
Identifier
47152, 2020-088AG
Orbit
Decayed
Country
Flag of USUS
Related business
Manufacturer
SpaceX/Seattle
Mission
Decayed Commercial Communications
Bus & Motor
STARLINK, Unknown motor
Mass
260 kg wet, ~248 kg dry
Launch date (UTC)
2020-11-25 (6 years ago)
Launch vehicle
FALCON 9
Launch site
Air Force Eastern Test Range (AFETR)
Object type
Payload
Rocket body
Debris
Shape & HBR
Box + 1 Pan, 10.1 m
Radar Cross Section
13.562 m², Large (>1 m²)

Expand to show TLE details & history
Last TLE update: 11 months ago

TLE from 11 months ago
0 STARLINK-1866
1 47152U 20088AG  25201.96343530  .12898898  12492-4  39985-3 0  9992
2 47152  53.0023 183.4444 0006668 270.4615 187.7064 16.44586970258258
Epoch: 2025-07-20T23:07Z
TLE epoch observation values (Epoch: 2025-07-20T23:07:20.809Z)
Latitude
52.39787°
Longitude
1.04278°
Altitude
164.239 km
Speed
7.812 km/s
True Right ascension
19h 07m 25s
True Declination
52° 12' 59"
Sunlit
Object was in full shadow at epoch
Visualization orbit readout
Latitude
Unknown
Longitude
Unknown
Altitude
Unknown
Speed
Unknown
Apparent Right ascension
Unknown
Apparent Declination
Unknown
Sunlit
N/A
Visualization observer readout
Local Sidereal Time
21:25:53
Azimuth
Unknown
Elevation
Unknown
Doppler factor
Unknown
Orbital elements
Apogee altitude
158.28 km
Perigee altitude
149.569 km
Semi-major axis
6,532.061 km
Eccentricity
0.00067
Inclination
53.0023°
RAAN
183.4444°
Arg. of periapsis
270.4615°
True anomaly
187.69616°
Mean anomaly
187.7064°
Eccentric anomaly
187.70128°
Mean motion
4.11119 °/min
Orbital period
87.57 mins
BSTAR
0.00039985
Loading maneuver chart data...
Computing Atmospheric mass density...

Documentation

Showing up to 5 results
|